Location: Košťálov
(50.5717°N, 15.4040°E)
Time: 15:42:34
(UTC+02:00)

ISS - Visible Passes

Search period start: 02 April 2020 00:00
Search period end: 12 April 2020 00:00
Orbit: 416 x 423 km, 51.6° (Epoch: 02 April)

Date Brightness Start Highest point End Pass type
(mag) Time Alt. Az. Time Alt. Az. Time Alt. Az.
02 Apr -3.3 20:12:45 10° WNW 20:16:02 55° SSW 20:19:20 10° SE visible
02 Apr -1.3 21:50:30 10° WSW 21:52:18 14° SW 21:52:19 14° SW visible
03 Apr -1.7 21:02:32 10° W 21:05:05 20° SW 21:06:56 14° S visible
04 Apr -2.2 20:14:51 10° W 20:17:48 28° SSW 20:20:44 10° SSE visible
06 Apr -1.1 20:17:32 10° WSW 20:19:20 14° SW 20:21:07 10° S visible
